sat.trackr.live / text

‹ back to catalog

SPAINSAT

NORAD 28945 · 2006-007A

PAYLOAD ACTIVE UNKNOWN

§ Identity

Operator
Country
SPN
Launch date
2006-03-11
Launch site
FRGUI
Launch vehicle
Mass (kg)
RCS (m²)
26.70

Purposes: comms

External: N2YO · Heavens-Above · Gunter

§ Orbital elements

Epoch: 2026-05-24T09:52:58.302624Z

Period
1,436.08 min
Inclination
0.5036°
Eccentricity
0.0004923
Mean motion
1.00273199 rev/d
Perigee alt
35,765.4 km
Apogee alt
35,807.0 km
Semi-major
42,164.3 km
B*
0.0000e+0
RAAN
86.8928°
Arg perigee
332.6676°
Mean anomaly
300.4836°
Rev number
7,398

§ Raw data

SPAINSAT1 28945U 06007A   26144.41178591 -.00000221  00000+0  00000+0 0  99982 28945   0.5036  86.8928 0004923 332.6676 300.4836  1.00273199 73989

JSON: /api/v1/satellites/28945 · /tle

For live sub-satellite position, see the globe view (requires WebGL).

§ Visibility from observer

Set your observer location to see the next 7 days of passes ≥ 10°. The values pass through the URL so the page stays shareable.

No JS? Fill the form by hand. The geolocation button needs JavaScript.